This is the latest recevied weather packets stored in our database for station/object IZ4UFQ-10. If no packets are shown the sender has not sent any weather packets the latest 10 day(s).
| Time | Temp. | Humidity | Pressure | Rain* | Wind** | Luminosity | Snow |
|---|---|---|---|---|---|---|---|
| 1777576495 | 12.22° C | 51% | 1024.4 hPa | 0 mm | - | 0 W/m² | - |
| 1777576195 | 12.78° C | 50% | 1024.4 hPa | 0 mm | - | 0 W/m² | - |
| 1777575895 | 12.78° C | 50% | 1024.4 hPa | 0 mm | - | 0 W/m² | - |
| 1777575594 | 12.78° C | 49% | 1024.3 hPa | 0 mm | - | 0 W/m² | - |
| 1777575294 | 13.33° C | 49% | 1024.3 hPa | 0 mm | - | 0 W/m² | - |
| 1777574994 | 13.33° C | 48% | 1024.2 hPa | 0 mm | - | 0 W/m² | - |
| 1777574693 | 13.33° C | 47% | 1024.1 hPa | 0 mm | - | 0 W/m² | - |
| 1777574393 | 13.89° C | 47% | 1024 hPa | 0 mm | - | 0 W/m² | - |
| 1777574093 | 13.89° C | 46% | 1023.9 hPa | 0 mm | - | 0 W/m² | - |
| 1777573793 | 13.89° C | 45% | 1023.8 hPa | 0 mm | - | 0 W/m² | - |
| 1777573492 | 13.89° C | 44% | 1023.8 hPa | 0 mm | - | 0 W/m² | - |
| 1777573192 | 14.44° C | 44% | 1023.7 hPa | 0 mm | - | 5 W/m² | - |
| 1777572892 | 14.44° C | 44% | 1023.6 hPa | 0 mm | - | 7 W/m² | - |
| 1777572591 | 14.44° C | 45% | 1023.5 hPa | 0 mm | - | 9 W/m² | - |
| 1777572291 | 14.44° C | 45% | 1023.5 hPa | 0 mm | - | 12 W/m² | - |
| 1777571991 | 15° C | 44% | 1023.4 hPa | 0 mm | - | 14 W/m² | - |
| 1777571691 | 15° C | 43% | 1023.3 hPa | 0 mm | - | 16 W/m² | - |
| 1777571390 | 15° C | 41% | 1023.3 hPa | 0 mm | - | 19 W/m² | - |
| 1777571090 | 15.56° C | 35% | 1023.2 hPa | 0 mm | - | 23 W/m² | - |
| 1777570790 | 15.56° C | 34% | 1023.3 hPa | 0 mm | - | 23 W/m² | - |
| 1777570490 | 15.56° C | 31% | 1023.2 hPa | 0 mm | - | 35 W/m² | - |
| 1777570189 | 15.56° C | 31% | 1023.2 hPa | 0 mm | - | 30 W/m² | - |
| 1777569889 | 15.56° C | 31% | 1023.1 hPa | 0 mm | - | 56 W/m² | - |
| 1777569589 | 15.56° C | 32% | 1023.1 hPa | 0 mm | - | 70 W/m² | - |
| 1777569288 | 15.56° C | 33% | 1023.1 hPa | 0 mm | - | 74 W/m² | - |
* Rain latest hour (hover to see other rain measurements)
** Current wind speed in m/s (hover to see current wind gust speed)